Other Surface Observations
Issued by NWS

Home | Current Version | Previous Version | Text Only | Print | Product List | Glossary On
Versions: 1 2 3 4 5 6 7 8 9 10 11 12 13 14 15 16 17 18 19 20 21 22 23 24 25 26 27 28 29 30 31 32 33 34 35 36 37 38 39 40 41 42 43 44 45 46 47 48 49 50
000
SXUS52 KTAE 261005
OSOTAE
OSOTAE
North Florida/South Alabama/Southwest Georgia Weather Roundup
National Weather Service Tallahassee Florida
500 AM EST FRI DEC 26 2014

Note: "fair" indicates few or no clouds below 12,000 feet with no
significant weather and/or obstructions to visibility.

!FLZ017-115-028-034-025-261100
...North Florida...

CITY           SKY/WX    TMP DP  RH WIND       PRES   REMARKS
TALLAHASSEE    FAIR      37  32  82 CALM      30.25S
APALACHICOLA   PTCLDY    46  40  79 NE8       30.23S WCI  42
PERRY          PTCLDY    38  37  95 CALM      30.26S
CROSS CITY       N/A     36  34  92 CALM      30.25S
JACKSONVILLE   CLEAR     41  41 100 N3        30.25S
$$

!FLZ112-006-005-002-011-261100
...Florida Panhandle...

CITY           SKY/WX    TMP DP  RH WIND       PRES   REMARKS
MARIANNA       PTCLDY    35  35 100 CALM      30.25R
BONIFAY        NOT AVBL
PANAMA CITY NW FAIR      41  36  82 E7          N/A  WCI  36
TYNDALL AFB    PTCLDY    45  44  95 E5        30.23F WCI  43
TYND DRONE APT FAIR      44  42  93 E7        30.22F WCI  40
DE FUNIAK SPR  FAIR      42  38  86 CALM      30.23S
EGLIN AFB      MOCLDY    41  38  92 NE6       30.22F WCI  37
DESTIN         MOCLDY    48  39  71 E7        30.22F WCI  45
HURLBURT       PTCLDY    45  39  80 NE7       30.20F WCI  41
CRESTVIEW      FAIR      35  34  96 CALM      30.24F
PENSACOLA      FAIR      49  43  80 NE5       30.20F
$$

!ALZ063-066-261100
...South Alabama...

CITY           SKY/WX    TMP DP  RH WIND       PRES   REMARKS
DOTHAN         FAIR      40  37  89 E3        30.27F
OZARK CAIRNS   PTCLDY    36  33  90 NE3       30.24S
FT RUCKER HELI FAIR      34  32  92 CALM      30.24R
RUCKER HELI 3  MOCLDY    35  35  99 E2        30.26R
RUCKER HELI 2  FAIR      34  33  96 CALM      30.24R
FLORALA APT    MOCLDY    40  38  93 CALM      30.24F
ANDALUSIA      MOCLDY    40  35  83 CALM      30.24S
TROY           PTCLDY    31  29  92 CALM      30.25R
EUFALA         CLOUDY    35  34  96 CALM      30.24F
MOBILE         PTCLDY    41  39  93 CALM      30.20F
$$

!GAZ120>161-261100
...Southwest and South Central Georgia...

CITY           SKY/WX    TMP DP  RH WIND       PRES   REMARKS
THOMASVILLE    FAIR      37  37 100 CALM      30.26S
BAINBRIDGE     PTCLDY    39  37  93 CALM      30.25S
MOODY AFB      FAIR      38  36  95 N1        30.25F
VALDOSTA       CLEAR     37  36  96 CALM      30.26F
MOULTRIE       CLEAR     37  37 100 CALM      30.26S
BLAKELY        CLEAR     36  36 100 CALM      30.26S
ALBANY         CLEAR     35  32  88 CALM      30.28F
TIFTON         FAIR      36  36 100 CALM      30.25F
FITZGERALD     FAIR      38  36  91 CALM      30.29S FOG
CORDELE        FAIR      36  35  95 CALM      30.28S
AMERICUS       FAIR      34  34 100 CALM      30.28S
HOMERVILLE     FAIR      41  41 100 CALM      30.26F
$$

!GMZ750-755-770-775-261100
...Coastal and Buoy Obs...

STATION/POSITION TIME  TEMP    WIND        PRES    VSBY  WAVE
                       AIR SEA DIR/SP/G                  HT/PER
                 (UTC) (F)     (DEG/KT/KT) (MB)    (MI)  (FT/S)
KEATON BEACH     1000   44      50/  4/  5 1024.5F
CEDAR KEY        0900   52      80/ 11/ 12 1024.4R
C TOWER          1000   57      90/ 12/ 14 1023.3F
APALACHICOLA BUO 0900   61 71   90/ 12/ 14 1023.0F         3/ 8
PANAMA CITY BUOY 0846   61 74   90/ 12/ 16 1022.8          2/ 7
MOBILE BUOY      1000   62 73  130/ 14/ 17 1021.1F         2/ 4
ORANGE BCH AL BU 0900   61 67  120/ 16/ 19 1021.8F         2/ 3
$$



USA.gov is the U.S. government's official web portal to all federal, state and local government web resources and services.